| time (UTC) | temp C | wind direction | speed KPH | gust KPH | rain 1hr cm | rain 24hr cm | rain mn cm | humidity % | barometer mb |
| 20260906113417 | 18 | 50 | 4.8 | 9.7 | 0.00 | 0.00 | 0.00 | 96 | 1019.4 |
| 20260906112737 | -17 | 63 | 3.2 | 3.2 | 0.00 | 0.00 | 0.00 | ||
| 20260906111945 | 18 | 56 | 6.4 | 9.7 | 0.00 | 0.00 | 0.00 | 96 | 1019.4 |
| 20260906111305 | 18 | 61 | 6.4 | 11.3 | 0.00 | 0.00 | 0.00 | 96 | 1019.4 |
| 20260906110626 | 18 | 59 | 6.4 | 11.3 | 0.00 | 0.00 | 0.00 | 96 | 1019.0 |
| 20260906105946 | 18 | 51 | 8.0 | 11.3 | 0.00 | 0.00 | 0.00 | 96 | 1019.0 |
| 20260906105307 | 18 | 57 | 4.8 | 11.3 | 0.00 | 0.00 | 0.00 | 96 | 1019.0 |
| 20260906104626 | 18 | 44 | 6.4 | 11.3 | 0.00 | 0.00 | 0.00 | 96 | 1019.0 |
| 20260906103946 | 18 | 36 | 4.8 | 9.7 | 0.00 | 0.00 | 0.00 | 96 | 1019.0 |
| 20260906103306 | 18 | 48 | 6.4 | 9.7 | 0.00 | 0.00 | 0.00 | 96 | 1019.0 |
| 20260906102626 | 18 | 58 | 6.4 | 11.3 | 0.00 | 0.00 | 0.00 | 96 | 1019.0 |
| 20260906101946 | 18 | 45 | 6.4 | 9.7 | 0.00 | 0.00 | 0.00 | 96 | 1019.0 |
| 20260906101306 | -17 | 17 | 1.6 | 1.6 | 0.00 | 0.00 | 0.00 | ||
| 20260906100517 | 18 | 47 | 8.0 | 9.7 | 0.00 | 0.00 | 0.00 | 96 | 1018.7 |
| 20260906095837 | 18 | 46 | 6.4 | 9.7 | 0.00 | 0.00 | 0.00 | 96 | 1018.7 |
| 20260906095157 | -17 | 58 | 4.8 | 4.8 | 0.00 | 0.00 | 0.00 | ||
| 20260906094258 | 18 | 52 | 8.0 | 12.9 | 0.00 | 0.00 | 0.00 | 96 | 1018.7 |
| 20260906093618 | 18 | 37 | 6.4 | 12.9 | 0.00 | 0.00 | 0.00 | 96 | 1018.7 |
| 20260906092938 | 18 | 57 | 8.0 | 12.9 | 0.00 | 0.00 | 0.00 | 96 | 1018.7 |
| 20260906092259 | 18 | 51 | 8.0 | 12.9 | 0.00 | 0.00 | 0.00 | 96 | 1018.4 |
| 20260906091618 | 18 | 25 | 4.8 | 11.3 | 0.00 | 0.00 | 0.00 | 96 | 1018.4 |
| 20260906090829 | 18 | 53 | 6.4 | 12.9 | 0.00 | 0.00 | 0.00 | 95 | 1018.4 |
| 20260906090150 | 18 | 50 | 6.4 | 12.9 | 0.00 | 0.00 | 0.00 | 95 | 1018.4 |
| 20260906085509 | 18 | 37 | 6.4 | 14.5 | 0.00 | 0.00 | 0.00 | 95 | 1018.4 |
| 20260906084829 | 18 | 36 | 6.4 | 12.9 | 0.00 | 0.00 | 0.00 | 95 | 1018.7 |
| 20260906084149 | 18 | 44 | 8.0 | 14.5 | 0.00 | 0.00 | 0.00 | 95 | 1018.4 |
| 20260906083509 | 18 | 46 | 8.0 | 11.3 | 0.00 | 0.00 | 0.00 | 95 | 1018.4 |
| 20260906082829 | 18 | 43 | 8.0 | 11.3 | 0.00 | 0.00 | 0.00 | 95 | 1018.4 |
| 20260906082149 | 18 | 51 | 8.0 | 12.9 | 0.00 | 0.00 | 0.00 | 95 | 1018.4 |
| 20260906081509 | 18 | 48 | 6.4 | 11.3 | 0.00 | 0.00 | 0.00 | 95 | 1018.4 |
| 20260906080829 | 18 | 47 | 6.4 | 9.7 | 0.00 | 0.00 | 0.00 | 95 | 1018.7 |
| 20260906080150 | 18 | 29 | 8.0 | 12.9 | 0.00 | 0.00 | 0.00 | 95 | 1018.4 |
| 20260906075510 | 18 | 25 | 4.8 | 11.3 | 0.00 | 0.00 | 0.00 | 95 | 1018.4 |
| 20260906074829 | 18 | 50 | 8.0 | 12.9 | 0.00 | 0.00 | 0.00 | 95 | 1018.4 |
| 20260906074150 | 18 | 45 | 8.0 | 12.9 | 0.00 | 0.00 | 0.00 | 95 | 1018.4 |
| 20260906073509 | 18 | 24 | 4.8 | 11.3 | 0.00 | 0.00 | 0.00 | 94 | 1018.4 |
| 20260906072830 | 18 | 50 | 8.0 | 11.3 | 0.00 | 0.00 | 0.00 | 94 | 1018.4 |
| 20260906072150 | 18 | 28 | 4.8 | 11.3 | 0.00 | 0.00 | 0.00 | 94 | 1018.4 |
| 20260906071509 | 18 | 49 | 6.4 | 11.3 | 0.00 | 0.00 | 0.00 | 94 | 1018.4 |
| 20260906070829 | 18 | 45 | 6.4 | 9.7 | 0.00 | 0.00 | 0.00 | 94 | 1018.4 |
| 20260906070149 | 18 | 42 | 6.4 | 9.7 | 0.00 | 0.00 | 0.00 | 94 | 1018.4 |
| 20260906065509 | -17 | 45 | 9.7 | 9.7 | 0.00 | 0.00 | 0.00 | ||
| 20260906064610 | -17 | 35 | 4.8 | 4.8 | 0.00 | 0.00 | 0.00 | ||
| 20260906063711 | 19 | 35 | 6.4 | 11.3 | 0.00 | 0.00 | 0.00 | 94 | 1018.7 |
| 20260906063031 | 19 | 18 | 6.4 | 9.7 | 0.00 | 0.00 | 0.00 | 94 | 1018.7 |
| 20260906062351 | 19 | 42 | 4.8 | 11.3 | 0.00 | 0.00 | 0.00 | 93 | 1018.7 |
| 20260906061711 | 20 | 32 | 6.4 | 11.3 | 0.00 | 0.00 | 0.00 | 93 | 1018.7 |
| 20260906061031 | 20 | 28 | 4.8 | 9.7 | 0.00 | 0.00 | 0.00 | 94 | 1018.7 |
| 20260906060351 | -17 | 48 | 8.0 | 8.0 | 0.00 | 0.00 | 0.00 | ||
| 20260906055603 | 20 | 56 | 6.4 | 11.3 | 0.00 | 0.00 | 0.00 | 93 | 1018.7 |
| 20260906054923 | 20 | 71 | 6.4 | 9.7 | 0.00 | 0.00 | 0.00 | 93 | 1018.7 |
| 20260906054243 | -17 | 70 | 6.4 | 6.4 | 0.00 | 0.00 | 0.00 | ||
| 20260906053455 | 20 | 56 | 6.4 | 14.5 | 0.00 | 0.00 | 0.00 | 92 | 1018.7 |
| 20260906052815 | 20 | 55 | 9.7 | 16.1 | 0.00 | 0.00 | 0.00 | 92 | 1018.7 |
| 20260906052135 | 20 | 62 | 9.7 | 12.9 | 0.00 | 0.00 | 0.00 | 92 | 1018.7 |
| 20260906051455 | 20 | 59 | 6.4 | 11.3 | 0.00 | 0.00 | 0.00 | 92 | 1018.7 |
| 20260906050815 | -17 | 4 | 3.2 | 3.2 | 0.00 | 0.00 | 0.00 | ||
| 20260906050026 | 20 | 51 | 4.8 | 12.9 | 0.00 | 0.00 | 0.00 | 92 | 1018.4 |
| 20260906045346 | 20 | 56 | 8.0 | 14.5 | 0.00 | 0.00 | 0.00 | 92 | 1018.4 |
| 20260906044706 | 20 | 68 | 8.0 | 12.9 | 0.00 | 0.00 | 0.00 | 92 | 1018.4 |
| 20260906044026 | 20 | 70 | 8.0 | 12.9 | 0.00 | 0.00 | 0.00 | 92 | 1018.4 |
| 20260906043346 | 20 | 39 | 4.8 | 9.7 | 0.00 | 0.00 | 0.00 | 92 | 1018.4 |
| 20260906042706 | 20 | 37 | 6.4 | 12.9 | 0.00 | 0.00 | 0.00 | 92 | 1018.4 |
| 20260906042026 | 20 | 53 | 8.0 | 12.9 | 0.00 | 0.00 | 0.00 | 92 | 1018.4 |
| 20260906041346 | 20 | 77 | 6.4 | 14.5 | 0.00 | 0.00 | 0.00 | 92 | 1018.0 |
| 20260906040706 | 20 | 55 | 9.7 | 16.1 | 0.00 | 0.00 | 0.00 | 92 | 1018.0 |
| 20260906040026 | -17 | 34 | 4.8 | 4.8 | 0.00 | 0.00 | 0.00 | ||
| 20260906035129 | 20 | 57 | 8.0 | 11.3 | 0.00 | 0.00 | 0.00 | 92 | 1017.7 |
| 20260906034449 | 20 | 68 | 6.4 | 12.9 | 0.00 | 0.00 | 0.00 | 93 | 1017.7 |
| 20260906033809 | 20 | 71 | 8.0 | 12.9 | 0.00 | 0.00 | 0.00 | 92 | 1017.7 |
| 20260906033131 | 20 | 63 | 6.4 | 14.5 | 0.00 | 0.00 | 0.00 | 92 | 1017.7 |
| 20260906032449 | 20 | 60 | 6.4 | 17.7 | 0.00 | 0.00 | 0.00 | 92 | 1017.3 |
| 20260906031809 | 20 | 63 | 6.4 | 17.7 | 0.00 | 0.00 | 0.00 | 92 | 1017.3 |
| 20260906031128 | 20 | 67 | 8.0 | 16.1 | 0.00 | 0.00 | 0.00 | 91 | 1017.3 |
| 20260906030449 | 20 | 70 | 8.0 | 17.7 | 0.00 | 0.00 | 0.00 | 91 | 1017.3 |
| 20260906025809 | 20 | 63 | 11.3 | 17.7 | 0.00 | 0.00 | 0.00 | 91 | 1017.3 |
| 20260906025128 | 20 | 61 | 8.0 | 16.1 | 0.00 | 0.00 | 0.00 | 90 | 1017.7 |
| 20260906024449 | 21 | 63 | 11.3 | 16.1 | 0.00 | 0.00 | 0.00 | 90 | 1017.3 |
| 20260906023808 | 21 | 59 | 9.7 | 17.7 | 0.00 | 0.00 | 0.00 | 90 | 1017.3 |
| 20260906023128 | 21 | 52 | 11.3 | 17.7 | 0.00 | 0.00 | 0.00 | 89 | 1017.3 |
| 20260906022448 | 21 | 66 | 8.0 | 8.0 | 0.00 | 0.00 | 0.00 | 88 | 1017.3 |
| 20260906021658 | 21 | 63 | 8.0 | 17.7 | 0.00 | 0.00 | 0.00 | 88 | 1017.3 |
| 20260906021018 | 21 | 55 | 11.3 | 19.3 | 0.00 | 0.00 | 0.00 | 87 | 1017.3 |
| 20260906020338 | -17 | 55 | 8.0 | 8.0 | 0.00 | 0.00 | 0.00 | ||
| 20260906015550 | 21 | 82 | 12.9 | 17.7 | 0.00 | 0.00 | 0.00 | 87 | 1017.3 |
| 20260906014910 | 21 | 84 | 8.0 | 19.3 | 0.00 | 0.00 | 0.00 | 88 | 1017.3 |
| 20260906014230 | 21 | 72 | 11.3 | 19.3 | 0.00 | 0.00 | 0.00 | 88 | 1017.3 |
| 20260906013550 | 21 | 60 | 11.3 | 19.3 | 0.00 | 0.00 | 0.00 | 88 | 1017.7 |
| 20260906012910 | 21 | 48 | 11.3 | 22.5 | 0.00 | 0.00 | 0.00 | 88 | 1017.3 |
| 20260906012230 | 21 | 54 | 8.0 | 25.7 | 0.00 | 0.00 | 0.00 | 88 | 1017.7 |
| 20260906011550 | 21 | 69 | 9.7 | 25.7 | 0.00 | 0.00 | 0.00 | 88 | 1017.3 |
| 20260906010910 | -17 | 85 | 8.0 | 8.0 | 0.00 | 0.00 | 0.00 | ||
| 20260906010122 | 21 | 57 | 11.3 | 17.7 | 0.00 | 0.00 | 0.00 | 87 | 1017.7 |
| 20260906005442 | 21 | 55 | 11.3 | 22.5 | 0.00 | 0.00 | 0.00 | 87 | 1017.7 |
| 20260906004802 | 21 | 47 | 14.5 | 22.5 | 0.00 | 0.00 | 0.00 | 87 | 1017.3 |
| 20260906004122 | 21 | 62 | 8.0 | 25.7 | 0.00 | 0.00 | 0.00 | 87 | 1017.3 |
| 20260906003442 | 21 | 48 | 9.7 | 22.5 | 0.00 | 0.00 | 0.00 | 86 | 1017.3 |
| 20260906002802 | 21 | 41 | 11.3 | 20.9 | 0.00 | 0.00 | 0.00 | 86 | 1017.3 |
| 20260906002121 | 21 | 52 | 11.3 | 20.9 | 0.00 | 0.00 | 0.00 | 87 | 1017.0 |
| 20260906001442 | 21 | 57 | 11.3 | 19.3 | 0.00 | 0.00 | 0.00 | 86 | 1017.0 |
| 20260906000802 | -17 | 31 | 4.8 | 4.8 | 0.00 | 0.00 | 0.00 | ||
| 20260905235902 | 22 | 41 | 11.3 | 22.5 | 0.00 | 0.00 | 0.00 | 85 | 1017.0 |
| 20260905235222 | 22 | 64 | 14.5 | 22.5 | 0.00 | 0.00 | 0.00 | 85 | 1017.0 |
| 20260905234542 | -17 | 67 | 9.7 | 9.7 | 0.00 | 0.00 | 0.00 | ||
| 20260905233755 | 22 | 43 | 12.9 | 25.7 | 0.00 | 0.00 | 0.00 | 85 | 1016.6 |
| 20260905233115 | 22 | 52 | 11.3 | 27.4 | 0.00 | 0.00 | 0.00 | 84 | 1017.0 |
| 20260905232435 | 23 | 53 | 16.1 | 30.6 | 0.00 | 0.00 | 0.00 | 83 | 1016.6 |
| 20260905231754 | 23 | 56 | 17.7 | 30.6 | 0.00 | 0.00 | 0.00 | 81 | 1016.6 |
| 20260905231114 | 23 | 47 | 9.7 | 22.5 | 0.00 | 0.00 | 0.00 | 81 | 1016.6 |
| 20260905230434 | 23 | 48 | 12.9 | 27.4 | 0.00 | 0.00 | 0.00 | 80 | 1016.6 |
| 20260905225755 | 23 | 63 | 12.9 | 29.0 | 0.00 | 0.00 | 0.00 | 80 | 1016.6 |
| 20260905225116 | 24 | 64 | 17.7 | 30.6 | 0.00 | 0.00 | 0.00 | 79 | 1016.6 |
| 20260905224435 | 24 | 44 | 16.1 | 29.0 | 0.00 | 0.00 | 0.00 | 78 | 1016.3 |
| 20260905223755 | 24 | 52 | 9.7 | 32.2 | 0.00 | 0.00 | 0.00 | 78 | 1016.3 |
| 20260905223116 | 25 | 52 | 19.3 | 32.2 | 0.00 | 0.00 | 0.00 | 78 | 1016.3 |
| 20260905222436 | 25 | 62 | 20.9 | 29.0 | 0.00 | 0.00 | 0.00 | 77 | 1016.3 |
| 20260905221755 | 25 | 48 | 14.5 | 27.4 | 0.00 | 0.00 | 0.00 | 76 | 1016.3 |
| 20260905221115 | 25 | 69 | 11.3 | 25.7 | 0.00 | 0.00 | 0.00 | 77 | 1016.3 |
| 20260905220436 | -17 | 37 | 14.5 | 14.5 | 0.00 | 0.00 | 0.00 | ||
| 20260905215647 | 26 | 48 | 11.3 | 29.0 | 0.00 | 0.00 | 0.00 | 77 | 1016.3 |
| 20260905215008 | 26 | 76 | 9.7 | 17.7 | 0.00 | 0.00 | 0.00 | 75 | 1016.3 |
| 20260905214327 | 26 | 55 | 11.3 | 17.7 | 0.00 | 0.00 | 0.00 | 76 | 1015.9 |
| 20260905213647 | 26 | 52 | 8.0 | 16.1 | 0.00 | 0.00 | 0.00 | 76 | 1015.9 |
| 20260905213007 | 26 | 61 | 9.7 | 22.5 | 0.00 | 0.00 | 0.00 | 75 | 1015.9 |
| 20260905212327 | 26 | 56 | 12.9 | 24.1 | 0.00 | 0.00 | 0.00 | 73 | 1015.9 |
| 20260905211647 | 27 | 44 | 9.7 | 19.3 | 0.00 | 0.00 | 0.00 | 71 | 1015.9 |
| 20260905211007 | -17 | 51 | 3.2 | 3.2 | 0.00 | 0.00 | 0.00 | ||
| 20260905210219 | 26 | 58 | 8.0 | 17.7 | 0.00 | 0.00 | 0.00 | 74 | 1015.9 |
| 20260905205539 | 26 | 52 | 11.3 | 17.7 | 0.00 | 0.00 | 0.00 | 73 | 1015.9 |
| 20260905204859 | 26 | 36 | 6.4 | 16.1 | 0.00 | 0.00 | 0.00 | 73 | 1015.9 |
| 20260905204219 | 26 | 50 | 4.8 | 16.1 | 0.00 | 0.00 | 0.00 | 72 | 1015.9 |
| 20260905203539 | 26 | 64 | 11.3 | 19.3 | 0.00 | 0.00 | 0.00 | 73 | 1016.3 |
| 20260905202900 | 26 | 57 | 14.5 | 19.3 | 0.00 | 0.00 | 0.00 | 73 | 1016.3 |
| 20260905202220 | 27 | 40 | 8.0 | 17.7 | 0.00 | 0.00 | 0.00 | 71 | 1015.9 |
| 20260905201539 | 26 | 36 | 9.7 | 17.7 | 0.00 | 0.00 | 0.00 | 75 | 1015.9 |
| 20260905200859 | 26 | 67 | 8.0 | 16.1 | 0.00 | 0.00 | 0.00 | 76 | 1015.9 |
| 20260905200219 | 25 | 67 | 6.4 | 19.3 | 0.00 | 0.00 | 0.00 | 78 | 1015.9 |
| 20260905195539 | 25 | 60 | 12.9 | 20.9 | 0.00 | 0.00 | 0.00 | 79 | 1015.9 |
| 20260905194859 | 26 | 41 | 8.0 | 20.9 | 0.00 | 0.00 | 0.00 | 77 | 1016.3 |
| 20260905194219 | 25 | 61 | 9.7 | 22.5 | 0.00 | 0.00 | 0.00 | 79 | 1016.3 |
| 20260905193539 | 25 | 46 | 11.3 | 17.7 | 0.00 | 0.00 | 0.00 | 80 | 1016.3 |
| 20260905192859 | 25 | 54 | 4.8 | 14.5 | 0.00 | 0.00 | 0.00 | 82 | 1016.6 |
| 20260905192220 | 24 | 51 | 6.4 | 16.1 | 0.00 | 0.00 | 0.00 | 83 | 1016.6 |
| 20260905191539 | 24 | 26 | 6.4 | 16.1 | 0.00 | 0.00 | 0.00 | 83 | 1016.6 |
| 20260905190900 | 24 | 37 | 8.0 | 12.9 | 0.00 | 0.00 | 0.00 | 84 | 1016.6 |
| 20260905190219 | 24 | 47 | 8.0 | 12.9 | 0.00 | 0.00 | 0.00 | 84 | 1016.6 |
| 20260905185539 | 24 | 56 | 4.8 | 12.9 | 0.00 | 0.00 | 0.00 | 84 | 1016.6 |
| 20260905184900 | 24 | 73 | 8.0 | 12.9 | 0.00 | 0.00 | 0.00 | 84 | 1016.6 |
| 20260905184219 | 24 | 47 | 4.8 | 12.9 | 0.00 | 0.00 | 0.00 | 84 | 1016.6 |
| 20260905183539 | 24 | 51 | 8.0 | 12.9 | 0.00 | 0.00 | 0.00 | 83 | 1017.0 |
| 20260905182859 | -17 | 18 | 6.4 | 6.4 | 0.00 | 0.00 | 0.00 | ||
| 20260905182110 | 24 | 53 | 8.0 | 12.9 | 0.00 | 0.00 | 0.00 | 85 | 1016.6 |
| 20260905181429 | 23 | 31 | 8.0 | 11.3 | 0.00 | 0.00 | 0.00 | 85 | 1016.6 |
| 20260905180749 | 23 | 58 | 8.0 | 14.5 | 0.00 | 0.00 | 0.00 | 85 | 1016.6 |
| 20260905180109 | -17 | 91 | 3.2 | 3.2 | 0.00 | 0.00 | 0.00 | ||
| 20260905175215 | 23 | 53 | 12.9 | 20.9 | 0.00 | 0.00 | 0.00 | 87 | 1016.6 |
| 20260905174535 | -17 | 89 | 11.3 | 11.3 | 0.00 | 0.00 | 0.00 | ||
| 20260905173745 | -17 | 36 | 12.9 | 12.9 | 0.00 | 0.00 | 0.00 | ||
| 20260905172957 | 23 | 60 | 12.9 | 20.9 | 0.00 | 0.00 | 0.00 | 86 | 1016.6 |
| 20260905172317 | 23 | 42 | 9.7 | 20.9 | 0.00 | 0.00 | 0.00 | 87 | 1016.6 |
| 20260905171636 | 23 | 52 | 8.0 | 19.3 | 0.00 | 0.00 | 0.00 | 88 | 1016.6 |
| 20260905170956 | 23 | 68 | 9.7 | 22.5 | 0.00 | 0.00 | 0.00 | 88 | 1016.6 |
| 20260905170317 | 23 | 53 | 8.0 | 22.5 | 0.00 | 0.00 | 0.00 | 88 | 1016.6 |
| 20260905165637 | 23 | 50 | 11.3 | 22.5 | 0.00 | 0.00 | 0.00 | 89 | 1017.0 |
| 20260905164956 | -17 | 59 | 9.7 | 9.7 | 0.00 | 0.00 | 0.00 | ||
| 20260905164207 | 23 | 60 | 12.9 | 20.9 | 0.00 | 0.00 | 0.00 | 88 | 1017.0 |
| 20260905163528 | 23 | 80 | 9.7 | 17.7 | 0.00 | 0.00 | 0.00 | 88 | 1017.0 |
| 20260905162848 | 23 | 63 | 8.0 | 17.7 | 0.00 | 0.00 | 0.00 | 88 | 1017.0 |
| 20260905162207 | 23 | 70 | 12.9 | 17.7 | 0.00 | 0.00 | 0.00 | 87 | 1016.6 |
| 20260905161527 | 23 | 73 | 11.3 | 19.3 | 0.00 | 0.00 | 0.00 | 87 | 1016.6 |
| 20260905160847 | 23 | 52 | 8.0 | 17.7 | 0.00 | 0.00 | 0.00 | 87 | 1016.6 |
| 20260905160207 | 23 | 46 | 8.0 | 16.1 | 0.00 | 0.00 | 0.00 | 87 | 1016.6 |
| 20260905155527 | -17 | 78 | 3.2 | 3.2 | 0.00 | 0.00 | 0.00 | ||
| 20260905154739 | 23 | 47 | 11.3 | 19.3 | 0.00 | 0.00 | 0.00 | 87 | 1016.6 |
| 20260905154059 | 23 | 69 | 6.4 | 16.1 | 0.00 | 0.00 | 0.00 | 88 | 1016.6 |
| 20260905153420 | 23 | 47 | 6.4 | 17.7 | 0.00 | 0.00 | 0.00 | 88 | 1016.6 |
| 20260905152739 | 23 | 33 | 6.4 | 16.1 | 0.00 | 0.00 | 0.00 | 88 | 1016.3 |
| 20260905152059 | 23 | 50 | 9.7 | 17.7 | 0.00 | 0.00 | 0.00 | 89 | 1016.3 |
| 20260905151419 | 23 | 16 | 6.4 | 12.9 | 0.00 | 0.00 | 0.00 | 89 | 1016.3 |
| 20260905150520 | -17 | 43 | 6.4 | 6.4 | 0.00 | 0.00 | 0.00 | ||
| 20260905145731 | -17 | 76 | 8.0 | 8.0 | 0.00 | 0.00 | 0.00 | ||
| 20260905144944 | 23 | 43 | 6.4 | 17.7 | 0.00 | 0.00 | 0.00 | 92 | 1015.9 |
| 20260905144303 | 22 | 74 | 9.7 | 16.1 | 0.00 | 0.00 | 0.00 | 92 | 1015.9 |
| 20260905143623 | 22 | 41 | 8.0 | 17.7 | 0.00 | 0.00 | 0.00 | 92 | 1016.3 |
| 20260905142944 | 22 | 51 | 9.7 | 16.1 | 0.00 | 0.00 | 0.00 | 93 | 1015.9 |
| 20260905142306 | 22 | 58 | 4.8 | 17.7 | 0.00 | 0.00 | 0.00 | 94 | 1015.9 |
| 20260905141624 | 22 | 49 | 9.7 | 16.1 | 0.00 | 0.00 | 0.00 | 94 | 1015.9 |
| 20260905140944 | 22 | 35 | 9.7 | 17.7 | 0.00 | 0.00 | 0.00 | 94 | 1015.9 |
| 20260905140304 | 22 | 33 | 6.4 | 16.1 | 0.00 | 0.00 | 0.00 | 95 | 1015.9 |
| 20260905135624 | 22 | 54 | 11.3 | 16.1 | 0.00 | 0.00 | 0.00 | 95 | 1015.9 |
| 20260905134944 | 22 | 34 | 8.0 | 16.1 | 0.00 | 0.00 | 0.00 | 95 | 1015.9 |
| 20260905134304 | 22 | 47 | 9.7 | 16.1 | 0.00 | 0.00 | 0.00 | 96 | 1015.9 |
| 20260905133624 | -17 | 24 | 4.8 | 4.8 | 0.00 | 0.00 | 0.00 | ||
| 20260905132834 | 22 | 62 | 9.7 | 14.5 | 0.00 | 0.00 | 0.00 | 97 | 1015.9 |
| 20260905132155 | 22 | 48 | 6.4 | 14.5 | 0.00 | 0.00 | 0.00 | 97 | 1015.9 |
| 20260905131515 | 21 | 52 | 9.7 | 16.1 | 0.00 | 0.00 | 0.00 | 97 | 1015.9 |
| 20260905130835 | 21 | 35 | 11.3 | 16.1 | 0.00 | 0.00 | 0.00 | 97 | 1016.3 |
| 20260905130154 | 21 | 45 | 8.0 | 12.9 | 0.00 | 0.00 | 0.00 | 97 | 1015.9 |
| 20260905125514 | -17 | 33 | 8.0 | 8.0 | 0.00 | 0.00 | 0.00 | ||
| 20260905124724 | 21 | 42 | 11.3 | 22.5 | 0.00 | 0.00 | 0.00 | 97 | 1015.6 |
| 20260905124044 | 21 | 58 | 8.0 | 16.1 | 0.00 | 0.00 | 0.00 | 96 | 1015.6 |
| 20260905123405 | 21 | 26 | 4.8 | 11.3 | 0.00 | 0.00 | 0.00 | 96 | 1015.2 |
| 20260905122616 | 21 | 52 | 9.7 | 19.3 | 0.00 | 0.00 | 0.00 | 96 | 1015.2 |
| 20260905121936 | 21 | 65 | 8.0 | 19.3 | 0.00 | 0.00 | 0.00 | 96 | 1014.9 |
| 20260905121255 | 21 | 60 | 9.7 | 17.7 | 0.00 | 0.00 | 0.00 | 96 | 1014.9 |
| 20260905120615 | 21 | 52 | 4.8 | 12.9 | 0.00 | 0.00 | 0.00 | 96 | 1014.9 |
| 20260905115935 | 21 | 88 | 6.4 | 12.9 | 0.00 | 0.00 | 0.00 | 96 | 1014.9 |
| 20260905115255 | 21 | 77 | 8.0 | 16.1 | 0.00 | 0.00 | 0.00 | 96 | 1014.5 |
| 20260905114616 | 21 | 58 | 9.7 | 16.1 | 0.00 | 0.00 | 0.00 | 96 | 1014.5 |
| 20260905113936 | 21 | 54 | 9.7 | 12.9 | 0.00 | 0.00 | 0.00 | 96 | 1014.5 |